Location: ???????
(54.9996°N, 37.9529°E)
Time: 04:36:57
(UTC+00:00)

YAOGAN 11 - Visible Passes

Search period start: 25 July 2024 00:00
Search period end: 04 August 2024 00:00
Orbit: 607 x 657 km, 98.4° (Epoch: 24 July)

Date Brightness Start Highest point End Pass type
(mag) Time Alt. Az. Time Alt. Az. Time Alt. Az.
28 Jul 7.8 00:09:35 10° ENE 00:11:01 11° NE 00:12:29 10° NNE visible
29 Jul 7.4 00:28:58 10° E 00:31:35 15° NE 00:34:12 10° NNE visible
02 Aug 7.7 00:16:53 10° ENE 00:18:50 13° NE 00:20:48 10° NNE visible
03 Aug 7.4 00:36:29 10° E 00:39:23 17° NE 00:42:18 10° NNE visible
